CW4610 Weather Reports


Display with metric or nautical units.
time (UTC)temp
F
wind
direction
speed
MPH
gust
MPH
rain 1hr
in
rain 24hr
in
rain mn
in
humidity
%
barometer
mb
20260508200019 61 180 10.0 17.0 0.00 0.00 0.00 58 1018.8
20260508195020 60 180 9.0 16.0 0.00 0.00 0.00 59 1018.7
20260508194020 59 180 10.0 15.0 0.00 0.00 0.00 62 1018.7
20260508193019 58 180 10.0 17.0 0.00 0.00 0.00 63 1018.6
20260508192020 57 158 9.0 17.0 0.00 0.00 0.00 63 1018.5
20260508191019 57 158 9.0 14.0 0.00 0.00 0.00 63 1018.4
20260508190018 58 180 8.0 13.0 0.00 0.00 0.00 63 1018.2
20260508185021 58 158 9.0 16.0 0.00 0.00 0.00 63 1018.2
20260508184019 59 180 10.0 16.0 0.00 0.00 0.00 63 1018.2
20260508183019 58 180 10.0 17.0 0.00 0.00 0.00 65 1018.2
20260508182019 58 180 10.0 16.0 0.00 0.00 0.00 66 1018.2
20260508181037 57 180 8.0 18.0 0.00 0.00 0.00 68 1018.2
20260508180020 57 180 10.0 17.0 0.00 0.00 0.00 69 1018.2
20260508175018 56 180 12.0 17.0 0.00 0.00 0.00 69 1018.2
20260508174019 55 180 10.0 17.0 0.00 0.00 0.00 72 1018.1
20260508173054 55 180 11.0 17.0 0.00 0.00 0.00 72 1018.0
20260508172020 55 180 11.0 17.0 0.00 0.00 0.00 73 1018.0
20260508171046 55 180 12.0 18.0 0.00 0.00 0.00 73 1017.7
20260508170020 55 180 11.0 16.0 0.00 0.00 0.00 74 1017.7
20260508165019 54 180 9.0 14.0 0.00 0.00 0.00 74 1017.7
20260508164018 54 180 10.0 15.0 0.00 0.00 0.00 74 1017.6
20260508163019 54 180 9.0 15.0 0.00 0.00 0.00 74 1017.6
20260508162110 54 158 10.0 16.0 0.00 0.00 0.00 74 1017.5
20260508161020 54 180 12.0 17.0 0.00 0.00 0.00 73 1017.2
20260508160039 55 158 10.0 16.0 0.00 0.00 0.00 72 1017.0
20260508155019 55 180 11.0 19.0 0.00 0.00 0.00 71 1016.9
20260508154018 55 180 11.0 18.0 0.00 0.00 0.00 71 1016.6
20260508153019 55 180 10.0 17.0 0.00 0.00 0.00 72 1016.6
20260508152018 54 158 8.0 14.0 0.00 0.00 0.00 73 1016.6
20260508151019 54 158 9.0 16.0 0.00 0.00 0.00 73 1016.4
20260508150019 54 180 10.0 15.0 0.00 0.00 0.00 74 1016.2
20260508145019 54 180 10.0 19.0 0.00 0.00 0.00 76 1016.1
20260508144018 53 180 13.0 20.0 0.00 0.00 0.00 75 1015.8
20260508143019 53 180 11.0 18.0 0.00 0.00 0.00 76 1015.8
20260508142018 53 180 7.0 12.0 0.00 0.00 0.00 78 1015.8
20260508141018 53 180 4.0 8.0 0.00 0.00 0.00 79 1015.7
20260508140047 53 180 6.0 11.0 0.00 0.00 0.00 79 1015.7
20260508135019 53 158 8.0 14.0 0.00 0.00 0.00 79 1015.7
20260508134038 53 135 8.0 14.0 0.00 0.00 0.00 79 1015.7
20260508133111 53 158 8.0 14.0 0.00 0.00 0.00 80 1015.6
20260508132018 53 135 7.0 12.0 0.00 0.00 0.00 80 1015.6
20260508131046 53 135 8.0 15.0 0.00 0.00 0.00 80 1015.7
20260508130019 53 158 6.0 9.0 0.00 0.00 0.00 80 1015.7
20260508125019 53 158 5.0 9.0 0.00 0.00 0.00 81 1015.6
20260508124019 53 158 8.0 13.0 0.00 0.00 0.00 81 1015.6
20260508123018 53 180 8.0 13.0 0.00 0.00 0.00 82 1015.4
20260508122018 53 180 6.0 10.0 0.00 0.00 0.00 82 1015.4
20260508121019 53 180 5.0 10.0 0.00 0.00 0.00 83 1015.5
20260508120018 52 158 4.0 8.0 0.00 0.00 0.00 82 1015.4
20260508115019 52 135 3.0 6.0 0.00 0.00 0.00 83 1015.4
20260508114018 52 113 1.0 5.0 0.00 0.00 0.00 83 1015.2
20260508113019 52 180 1.0 3.0 0.00 0.00 0.00 83 1015.1
20260508112018 53 135 2.0 4.0 0.00 0.00 0.00 83 1015.0
20260508111018 53 135 5.0 10.0 0.00 0.00 0.00 83 1015.0
20260508110039 53 135 8.0 15.0 0.00 0.00 0.00 83 1014.9
20260508105019 52 315 3.0 7.0 0.00 0.00 0.00 83 1014.9
20260508104018 52 45 2.0 4.0 0.00 0.00 0.00 82 1014.7
20260508103019 53 315 2.0 3.0 0.00 0.00 0.00 82 1014.6
20260508102018 53 45 3.0 5.0 0.00 0.00 0.00 82 1014.6
20260508101024 53 315 1.0 3.0 0.00 0.00 0.00 81 1014.6
20260508100018 53 68 1.0 3.0 0.00 0.00 0.00 81 1014.6
20260508095018 53 68 2.0 3.0 0.00 0.00 0.00 81 1014.6
20260508094019 53 68 3.0 5.0 0.00 0.00 0.00 81 1014.7
20260508093019 53 90 3.0 5.0 0.00 0.00 0.00 81 1014.8
20260508092018 53 90 2.0 5.0 0.00 0.00 0.00 81 1014.8
20260508091029 53 90 3.0 6.0 0.00 0.00 0.00 80 1014.7
20260508090017 53 90 4.0 6.0 0.00 0.00 0.00 80 1014.8
20260508085038 53 113 4.0 7.0 0.00 0.00 0.00 80 1014.8
20260508084018 53 90 3.0 6.0 0.00 0.00 0.00 80 1014.7
20260508083017 53 113 3.0 5.0 0.00 0.00 0.00 80 1014.7
20260508082017 53 113 4.0 7.0 0.00 0.00 0.00 80 1014.7
20260508081018 53 90 4.0 8.0 0.00 0.00 0.00 80 1014.7
20260508080018 53 90 3.0 6.0 0.00 0.00 0.00 80 1014.6
20260508075018 53 113 3.0 6.0 0.00 0.00 0.00 80 1014.6
20260508074018 53 68 2.0 5.0 0.00 0.00 0.00 80 1014.7
20260508073018 53 90 1.0 4.0 0.00 0.00 0.00 80 1014.8
20260508072017 53 90 3.0 6.0 0.00 0.00 0.00 80 1014.8
20260508071017 53 68 2.0 4.0 0.00 0.00 0.00 80 1015.0
20260508070018 53 68 1.0 3.0 0.00 0.00 0.00 80 1015.0
20260508065019 53 68 2.0 5.0 0.00 0.00 0.00 80 1015.0
20260508064018 53 68 3.0 6.0 0.00 0.00 0.00 80 1015.1
20260508063019 53 68 2.0 4.0 0.00 0.00 0.00 80 1015.2
20260508062018 54 45 4.0 6.0 0.00 0.00 0.00 79 1015.2
20260508061018 54 158 1.0 3.0 0.00 0.00 0.00 79 1015.3
20260508060019 54 68 3.0 5.0 0.00 0.00 0.00 78 1015.2
20260508055019 54 23 3.0 5.0 0.00 0.00 0.00 78 1015.2
20260508054018 55 23 3.0 4.0 0.00 0.00 0.00 77 1015.2
20260508053018 55 45 4.0 6.0 0.00 0.00 0.00 76 1015.4
20260508052018 56 23 1.0 3.0 0.00 0.00 0.00 76 1015.4
20260508051053 56 180 3.0 7.0 0.00 0.00 0.00 76 1015.4
20260508050019 56 0 1.0 2.0 0.00 0.00 0.00 75 1015.4
20260508045019 57 315 3.0 5.0 0.00 0.00 0.00 74 1015.4
20260508044049 57 90 2.0 4.0 0.00 0.00 0.00 74 1015.4
20260508043019 57 0 3.0 6.0 0.00 0.00 0.00 73 1015.4
20260508042019 58 315 4.0 7.0 0.00 0.00 0.00 73 1015.4
20260508041018 58 0 3.0 5.0 0.00 0.00 0.00 71 1015.1
20260508040019 59 0 3.0 4.0 0.00 0.00 0.00 71 1015.0
20260508035038 59 23 3.0 4.0 0.00 0.00 0.00 69 1015.0
20260508034018 60 23 2.0 5.0 0.00 0.00 0.00 68 1015.0
20260508033023 60 315 3.0 7.0 0.00 0.00 0.00 68 1014.9
20260508032023 61 0 2.0 5.0 0.00 0.00 0.00 67 1014.9
20260508031026 61 113 3.0 5.0 0.00 0.00 0.00 66 1014.8
20260508030019 62 180 6.0 11.0 0.00 0.00 0.00 65 1014.8
20260508025039 62 180 7.0 13.0 0.00 0.00 0.00 64 1014.8
20260508024019 62 180 6.0 12.0 0.00 0.00 0.00 65 1014.7
20260508023019 62 180 8.0 14.0 0.00 0.00 0.00 64 1014.9
20260508022018 63 180 11.0 23.0 0.00 0.00 0.00 63 1015.0
20260508021038 63 180 10.0 17.0 0.00 0.00 0.00 63 1014.9
20260508020058 64 180 9.0 16.0 0.00 0.00 0.00 62 1014.8
20260508015018 65 180 9.0 13.0 0.00 0.00 0.00 61 1014.8
20260508014018 65 180 8.0 14.0 0.00 0.00 0.00 61 1015.0
20260508013051 65 180 8.0 13.0 0.00 0.00 0.00 61 1015.0
20260508012038 65 180 10.0 17.0 0.00 0.00 0.00 62 1015.0
20260508011038 65 180 10.0 19.0 0.00 0.00 0.00 61 1015.0
20260508010018 65 180 10.0 20.0 0.00 0.00 0.00 61 1015.0
20260508005018 66 180 14.0 20.0 0.00 0.00 0.00 61 1015.0
20260508004018 66 180 13.0 21.0 0.00 0.00 0.00 61 1015.0
20260508003038 66 180 14.0 20.0 0.00 0.00 0.00 61 1015.1
20260508002018 65 180 12.0 19.0 0.00 0.00 0.00 61 1015.1
20260508001041 66 180 11.0 17.0 0.00 0.00 0.00 60 1015.0
20260508000019 67 180 14.0 22.0 0.00 0.00 0.00 58 1015.1
20260507235018 68 180 12.0 19.0 0.00 0.00 0.00 57 1015.1
20260507234038 69 180 12.0 19.0 0.00 0.00 0.00 55 1015.1
20260507233018 69 180 9.0 17.0 0.00 0.00 0.00 54 1015.4
20260507232018 70 180 9.0 13.0 0.00 0.00 0.00 55 1015.5
20260507231019 70 180 9.0 15.0 0.00 0.00 0.00 53 1015.5
20260507230022 71 180 9.0 15.0 0.00 0.00 0.00 52 1015.5
20260507225017 72 180 11.0 18.0 0.00 0.00 0.00 51 1015.5
20260507224018 73 180 7.0 13.0 0.00 0.00 0.00 48 1015.6
20260507223018 73 180 10.0 17.0 0.00 0.00 0.00 48 1015.7
20260507222058 73 225 10.0 16.0 0.00 0.00 0.00 47 1015.7
20260507221017 73 270 3.0 7.0 0.00 0.00 0.00 49 1015.8
20260507220038 72 0 4.0 8.0 0.00 0.00 0.00 47 1015.9
20260507215018 72 0 5.0 10.0 0.00 0.00 0.00 45 1016.0
20260507214038 72 0 6.0 10.0 0.00 0.00 0.00 48 1016.1
20260507213017 71 23 7.0 12.0 0.00 0.00 0.00 47 1016.2
20260507212017 71 0 6.0 11.0 0.00 0.00 0.00 47 1016.2
20260507211047 71 23 5.0 13.0 0.00 0.00 0.00 46 1016.4
20260507210037 71 0 7.0 12.0 0.00 0.00 0.00 45 1016.5
20260507205019 72 338 7.0 12.0 0.00 0.00 0.00 44 1016.6
20260507204017 73 23 5.0 10.0 0.00 0.00 0.00 43 1016.7
20260507203018 74 293 4.0 6.0 0.00 0.00 0.00 44 1016.9
20260507202018 74 225 3.0 7.0 0.00 0.00 0.00 44 1017.0
20260507201018 73 225 3.0 8.0 0.00 0.00 0.00 45 1017.1